Regional Weather Roundup
Issued by NWS

Home | Current Version | Previous Version | Graphics & Text | Print | Product List | Glossary On
Versions: 1 2 3 4 5 6 7 8 9 10 11 12 13 14 15 16 17 18 19 20 21 22 23 24 25 26 27 28 29 30 31 32 33 34 35 36 37 38 39 40 41 42 43 44 45 46 47 48 49 50
000
ASUS43 KIND 191209
RWRIN

WEATHER ROUNDUP FOR INDIANA
NATIONAL WEATHER SERVICE INDIANAPOLIS IN
800 AM EDT FRI SEP 19 2014

NOTE: "FAIR" INDICATES FEW OR NO CLOUDS BELOW 12,000 FEET WITH NO
SIGNIFICANT WEATHER AND/OR OBSTRUCTIONS TO VISIBILITY.

* - STATION DOES NOT REPORT WEATHER SUCH AS PRECIPITATION OR FOG.

+ - STATION NOT QUALITY CONTROLLED BY THE NATIONAL WEATHER SERVICE.
    USE DATA WITH CAUTION...ESPECIALLY DEWPOINT AND RELATIVE
    HUMIDITY OBSERVATIONS.

INZ001>003-010>013-019-020-191300-
NORTHWEST INDIANA

CITY           SKY/WX    TMP DP  RH WIND       PRES   REMARKS
GARY /AIRPORT/ PTCLDY    55  50  82 SE9       30.18R
KNOX *+        CLEAR     49  47  93 SE3       30.19R
LA PORTE +     FOG       46  46 100 E5        30.21R VSB 1
6HR MIN TEMP:  45; 6HR MAX TEMP:  51;

MICHIGAN CITY+ CLEAR     52  52 100 SE6       30.19F FOG
MONTICELLO +   CLEAR     50  49  95 E3        30.19R
RENSSELAER +   CLEAR     46  46 100 E3        30.19R FOG
VALPARAISO     CLEAR     47  46  97 E6        30.20R FOG
6HR MIN TEMP:  47; 6HR MAX TEMP:  51;


$$

LMZ046-743>745-191300-
SOUTHERN LAKE MICHIGAN

STATION/POSITION TIME  TEMP WIND        PRES
                       AIR  DIR/SP/G
                 (UTC) (F)  (DEG/KT/KT) (MB)
MICHIGAN CITY    1200   55  120/ 10/ 13   N/A

$$

INZ004-005-014>016-021>024-191300-
NORTH CENTRAL INDIANA

CITY           SKY/WX    TMP DP  RH WIND       PRES   REMARKS
ELKHART        CLEAR     48  48 100 E5        30.22S FOG
GOSHEN         CLEAR     51  49  92 E6        30.22R FOG
6HR MIN TEMP:  50; 6HR MAX TEMP:  54;

LOGANSPORT +   CLEAR     48  46  93 E3        30.20R FOG
PERU/GRISSOM   CLEAR     50  50 100 E6        30.20R
6HR MIN TEMP:  49; 6HR MAX TEMP:  55;

ROCHESTER +      N/A     50  50 100 CALM      30.22R FOG
SOUTH BEND     CLEAR     51  49  92 E6        30.22R FOG
6HR MIN TEMP:  51; 6HR MAX TEMP:  58;

WARSAW +       CLEAR     50  50 100 E7        30.22R FOG

$$

INZ006>009-017-018-025>027-191300-
NORTHEAST INDIANA

CITY           SKY/WX    TMP DP  RH WIND       PRES   REMARKS
ANGOLA *+      PTCLDY    50  48  93 E6        30.24R
AUBURN +       CLEAR     46  45  93 E5        30.25R FOG
FORT WAYNE     PTCLDY    48  47  96 E5        30.24R FOG
6HR MIN TEMP:  48; 6HR MAX TEMP:  52;

HUNTINGTON +   FOG       50  50 100 E5        30.22R VSB 1/4
6HR MIN TEMP:  47; 6HR MAX TEMP:  51;


$$

INZ028-029-035-036-043>045-051>053-191300-
WEST CENTRAL INDIANA

CITY           SKY/WX    TMP DP  RH WIND       PRES   REMARKS
GREENCASTLE +  CLEAR     48  46  93 E3        30.18R
LAFAYETTE      CLEAR     49  48  97 NE5       30.18R
6HR MIN TEMP:  48; 6HR MAX TEMP:  53;

TERRE HAUTE    CLEAR     46  44  93 NE5       30.15R
6HR MIN TEMP:  46; 6HR MAX TEMP:  51;


$$

INZ030>032-037>040-046>048-054>057-064-065-191300-
CENTRAL INDIANA

CITY           SKY/WX    TMP DP  RH WIND       PRES   REMARKS
CP ATTERBURY + CLEAR     43  43 100 CALM      30.18R FOG
COLUMBUS       CLEAR     45  45 100 CALM      30.17R
FRANKFORT +    CLEAR    N/A N/A N/A E3        30.19R HAZE
GREENWOOD *+   CLEAR     52  50  93 E5        30.18
INDIANAPOLIS   PTCLDY    53  48  83 E6        30.17R
6HR MIN TEMP:  53; 6HR MAX TEMP:  58;

-EAGLE CREEK   CLEAR     52  47  83 E3        30.17R
6HR MIN TEMP:  50; 6HR MAX TEMP:  56;

KOKOMO *+      CLEAR     46  43  87 E5        30.21R
MARION +       CLEAR     48  46  93 E5        30.21R FOG
MT COMFORT *+  CLEAR     48  48 100 E5        30.19R
SHELBYVILLE    CLEAR     49  46  90 NE6       30.17R FOG
6HR MIN TEMP:  49; 6HR MAX TEMP:  53;

ZIONSVILLE +   CLEAR     47  44  89 CALM      30.19R FOG
6HR MIN TEMP:  47; 6HR MAX TEMP:  55;


$$

INZ033-034-041-042-049-050-058-059-191300-
EAST CENTRAL INDIANA

CITY           SKY/WX    TMP DP  RH WIND       PRES   REMARKS
MUNCIE         CLEAR     47  45  93 E3        30.20R FOG
6HR MIN TEMP:  45; 6HR MAX TEMP:  51;


$$

INZ060-061-067>069-081>083-085>088-191300-
SOUTHWEST INDIANA

CITY           SKY/WX    TMP DP  RH WIND       PRES   REMARKS
EVANSVILLE     CLEAR     55  50  83 NE5       30.11R
6HR MIN TEMP:  54; 6HR MAX TEMP:  58;

WASHINGTON +   CLEAR     49  48  96 CALM      30.14R
6HR MIN TEMP:  46; 6HR MAX TEMP:  50;


$$

INZ062-063-066-070>080-084-089>092-191300-
SOUTH CENTRAL AND SOUTHEAST INDIANA

CITY           SKY/WX    TMP DP  RH WIND       PRES   REMARKS
BLOOMINGTON    CLEAR     47  45  93 CALM      30.15R
6HR MIN TEMP:  45; 6HR MAX TEMP:  49;

NORTH VERNON + CLEAR     48  48 100 CALM      30.16

$$




USA.gov is the U.S. government's official web portal to all federal, state and local government web resources and services.